Terminal Aerodrome Forecast
Issued by NWS

Home | Current Version | Previous Version | Text Only | Print | Product List | Glossary On
Versions: 1 2 3 4 5 6 7 8 9 10 11 12 13 14
000
FTUS46 KSTO 121120
TAFSAC
TAF
KSAC 121120Z 1212/1312 VRB03KT P6SM SCT250
      TEMPO 1212/1216 4SM BR=

USA.gov is the U.S. government's official web portal to all federal, state and local government web resources and services.